QPF
0.00 0.00 0.00 0.00 0.00 0.00 0.00 0.00 0.00 0.00 0.00 0.00 0.00 0.00 0.00 0.00 0.00 0.00 0.00 0.00 0.00 0.00 0.00 0.00 0.00 0.00 0.00 0.00 0.00 0.01 0.00 0.00 0.00 0.00 0.00 0.00 0.00 0.00 0.00 0.00 0.00 0.00 0.00 0.00
0.00 0.00 0.00 0.00 0.00 0.00 0.00 0.00 0.00 0.00 0.00 0.00 0.00 0.00 0.00 0.00 0.00 0.00 0.00 0.00 0.00 0.00 0.00 0.00 0.00 0.00 0.00 0.00 0.00 0.01 0.01 0.00 0.00 0.00 0.00 0.00 0.00 0.00 0.00 0.00 0.00 0.00 0.00 0.00
0.00 0.00 0.00 0.00 0.00 0.00 0.00 0.00 0.00 0.00 0.00 0.00 0.00 0.00 0.00 0.00 0.00 0.00 0.00 0.00 0.00 0.00 0.00 0.00 0.00 0.00 0.00 0.00 0.00 0.01 0.01 0.01 0.00 0.02 0.02 0.00 0.00 0.00 0.00 0.00 0.00 0.02 0.00 0.00
0.00 0.00 0.00 0.00 0.00 0.00 0.00 0.00 0.00 0.00 0.00 0.00 0.00 0.00 0.00 0.00 0.00 0.00 0.00 0.00 0.00 0.00 0.00 0.00 0.00 0.00 0.00 0.00 0.00 0.01 0.01 0.00 0.00 0.01 0.01 0.00 0.00 0.00 0.00 0.00 0.01 0.10 0.05 0.00
0.00 0.00 0.00 0.00 0.00 0.00 0.00 0.00 0.00 0.00 0.00 0.00 0.00 0.00 0.00 0.00 0.00 0.00 0.00 0.00 0.00 0.00 0.00 0.00 0.00 0.00 0.00 0.00 0.00 0.00 0.00 0.00 0.00 0.00 0.00 0.00 0.00 0.00 0.04 0.06 0.01 0.03 0.18 0.17
0.00 0.00 0.00 0.00 0.00 0.00 0.00 0.00 0.00 0.00 0.00 0.00 0.00 0.00 0.00 0.00 0.00 0.00 0.00 0.00 0.00 0.00 0.00 0.00 0.00 0.00 0.00 0.00 0.00 0.00 0.00 0.00 0.00 0.00 0.00 0.00 0.00 0.00 0.00 0.00 0.02 0.03 0.03 0.02
0.00 0.00 0.00 0.00 0.00 0.00 0.00 0.00 0.00 0.00 0.00 0.00 0.00 0.00 0.00 0.00 0.00 0.00 0.00 0.00 0.00 0.00 0.00 0.00 0.00 0.00 0.00 0.00 0.00 0.00 0.00 0.00 0.00 0.00 0.00 0.00 0.00 0.00 0.00 0.00 0.00 0.00 0.00 0.00
0.00 0.00 0.00 0.00 0.00 0.00 0.00 0.00 0.00 0.00 0.00 0.00 0.00 0.00 0.00 0.00 0.00 0.00 0.00 0.00 0.00 0.00 0.00 0.00 0.00 0.00 0.00 0.00 0.00 0.00 0.00 0.00 0.00 0.00 0.00 0.00 0.00 0.00 0.00 0.00 0.00 0.00 0.00 0.00
0.00 0.00 0.00 0.00 0.00 0.00 0.00 0.00 0.00 0.00 0.00 0.00 0.00 0.00 0.00 0.00 0.00 0.00 0.00 0.00 0.00 0.00 0.00 0.00 0.00 0.00 0.00 0.00 0.00 0.00 0.00 0.00 0.00 0.00 0.00 0.00 0.00 0.00 0.00 0.00 0.00 0.00 0.00 0.00
0.00 0.00 0.00 0.00 0.00 0.00 0.00 0.00 0.00 0.00 0.00 0.00 0.00 0.00 0.00 0.00 0.00 0.00 0.00 0.00 0.00 0.00 0.00 0.00 0.00 0.00 0.00 0.00 0.00 0.00 0.00 0.00 0.00 0.00 0.00 0.00 0.00 0.00 0.00 0.00 0.00 0.00 0.00 0.00
0.00 0.00 0.00 0.00 0.00 0.00 0.00 0.00 0.00 0.00 0.00 0.00 0.00 0.00 0.00 0.00 0.00 0.00 0.00 0.00 0.00 0.00 0.00 0.00 0.00 0.00 0.00 0.00 0.00 0.00 0.00 0.00 0.00 0.00 0.00 0.00 0.00 0.00 0.00 0.00 0.00 0.00 0.00 0.00
0.00 0.00 0.00 0.00 0.00 0.00 0.00 0.00 0.00 0.00 0.00 0.00 0.00 0.00 0.00 0.00 0.00 0.00 0.00 0.00 0.00 0.00 0.00 0.00 0.00 0.00 0.00 0.00 0.00 0.00 0.00 0.00 0.00 0.00 0.00 0.00 0.00 0.00 0.00 0.00 0.00 0.00 0.00 0.00
0.00 0.00 0.00 0.00 0.00 0.00 0.00 0.00 0.00 0.00 0.00 0.00 0.00 0.00 0.00 0.00 0.00 0.00 0.00 0.00 0.00 0.00 0.00 0.00 0.00 0.00 0.00 0.00 0.00 0.00 0.01 0.00 0.00 0.00 0.00 0.00 0.00 0.00 0.00 0.00 0.00 0.00 0.00 0.00
0.00 0.00 0.00 0.00 0.00 0.00 0.00 0.00 0.00 0.00 0.00 0.00 0.00 0.00 0.00 0.00 0.00 0.00 0.00 0.00 0.00 0.00 0.00 0.00 0.00 0.00 0.01 0.01 0.00 0.00 0.01 0.00 0.00 0.00 0.00 0.00 0.00 0.00 0.00 0.00 0.00 0.00 0.00 0.00
0.00 0.00 0.00 0.00 0.00 0.00 0.00 0.00 0.00 0.00 0.00 0.00 0.00 0.00 0.00 0.00 0.00 0.00 0.00 0.00 0.00 0.00 0.00 0.00 0.01 0.01 0.01 0.00 0.00 0.00 0.00 0.00 0.00 0.00 0.00 0.00 0.00 0.00 0.00 0.00 0.00 0.00 0.00 0.00
0.00 0.00 0.00 0.00 0.00 0.00 0.00 0.00 0.00 0.00 0.00 0.00 0.00 0.00 0.00 0.00 0.00 0.00 0.00 0.00 0.00 0.00 0.00 0.01 0.01 0.01 0.01 0.00 0.00 0.00 0.00 0.00 0.00 0.00 0.00 0.00 0.00 0.00 0.00 0.00 0.00 0.00 0.00 0.00
0.00 0.00 0.00 0.00 0.00 0.00 0.00 0.00 0.00 0.00 0.00 0.00 0.00 0.00 0.00 0.00 0.00 0.00 0.00 0.00 0.00 0.00 0.00 0.00 0.00 0.00 0.00 0.00 0.00 0.00 0.00 0.00 0.00 0.00 0.00 0.00 0.00 0.00 0.00 0.00 0.00 0.00 0.00 0.00
0.00 0.00 0.00 0.00 0.00 0.00 0.00 0.00 0.00 0.00 0.00 0.00 0.00 0.00 0.00 0.00 0.00 0.00 0.00 0.00 0.00 0.00 0.00 0.00 0.00 0.00 0.00 0.00 0.00 0.00 0.00 0.00 0.00 0.00 0.00 0.00 0.00 0.00 0.00 0.00 0.00 0.00 0.00 0.00
0.00 0.00 0.00 0.00 0.00 0.00 0.00 0.00 0.00 0.00 0.00 0.00 0.00 0.00 0.00 0.00 0.00 0.00 0.00 0.00 0.00 0.00 0.00 0.00 0.00 0.00 0.00 0.00 0.00 0.00 0.00 0.00 0.00 0.00 0.00 0.00 0.00 0.00 0.00 0.00 0.00 0.00 0.00 0.00
0.00 0.00 0.00 0.00 0.00 0.00 0.00 0.00 0.00 0.00 0.00 0.00 0.00 0.00 0.00 0.00 0.00 0.00 0.00 0.00 0.00 0.00 0.00 0.00 0.00 0.00 0.00 0.00 0.00 0.00 0.00 0.00 0.00 0.00 0.00 0.00 0.00 0.00 0.00 0.00 0.00 0.00 0.00 0.00
0.00 0.00 0.00 0.00 0.00 0.00 0.00 0.00 0.00 0.00 0.00 0.00 0.00 0.00 0.00 0.00 0.00 0.00 0.00 0.00 0.00 0.00 0.00 0.00 0.00 0.00 0.00 0.00 0.00 0.00 0.00 0.00 0.00 0.00 0.00 0.00 0.00 0.00 0.00 0.00 0.00 0.00 0.00 0.00
0.00 0.00 0.00 0.00 0.00 0.00 0.00 0.00 0.00 0.00 0.00 0.00 0.00 0.00 0.00 0.00 0.00 0.00 0.00 0.00 0.00 0.00 0.00 0.00 0.00 0.00 0.00 0.00 0.00 0.00 0.00 0.00 0.00 0.00 0.00 0.00 0.00 0.00 0.00 0.00 0.00 0.00 0.00 0.00
0.00 0.00 0.00 0.00 0.00 0.00 0.00 0.00 0.00 0.00 0.00 0.00 0.00 0.00 0.00 0.00 0.00 0.00 0.00 0.00 0.00 0.00 0.00 0.00 0.00 0.00 0.00 0.00 0.00 0.00 0.00 0.00 0.00 0.00 0.00 0.00 0.00 0.00 0.00 0.00 0.00 0.00 0.00 0.00
0.00 0.00 0.00 0.00 0.00 0.00 0.00 0.00 0.00 0.00 0.00 0.00 0.00 0.00 0.00 0.00 0.00 0.00 0.00 0.00 0.00 0.00 0.00 0.00 0.00 0.00 0.00 0.00 0.00 0.00 0.00 0.00 0.00 0.00 0.00 0.00 0.01 0.00 0.00 0.00 0.00 0.01 0.01 0.02
0.00 0.00 0.00 0.00 0.00 0.00 0.00 0.00 0.00 0.00 0.00 0.00 0.00 0.00 0.00 0.00 0.00 0.00 0.00 0.00 0.00 0.00 0.00 0.00 0.00 0.00 0.00 0.00 0.00 0.00 0.00 0.00 0.00 0.00 0.00 0.00 0.00 0.00 0.00 0.00 0.00 0.00 0.00 0.01
0.00 0.00 0.00 0.00 0.00 0.00 0.00 0.00 0.00 0.00 0.00 0.00 0.00 0.00 0.00 0.00 0.00 0.00 0.00 0.00 0.00 0.00 0.00 0.00 0.00 0.00 0.00 0.00 0.00 0.00 0.00 0.00 0.00 0.00 0.00 0.00 0.00 0.00 0.00 0.00 0.00 0.00 0.00 0.00
MSLP
1008.06 1007.83 1007.31 1007.14 1007.13 1007.10 1007.06 1006.66 1006.34 1006.45 1006.63 1006.63 1007.16 1008.32 1009.17 1010.05 1010.49 1010.85 1011.40 1011.96 1012.35 1012.70 1013.30 1014.03 1014.79 1015.39 1015.91 1016.47 1017.00 1017.51 1018.03 1018.40 1018.85 1019.00 1019.06 1019.04 1018.82 1018.96 1018.99 1019.06 1019.25 1019.37 1019.48 1019.49
1007.95 1007.17 1006.97 1007.20 1007.20 1007.08 1006.91 1006.54 1006.38 1006.81 1006.99 1006.86 1007.60 1008.42 1009.30 1009.83 1010.09 1010.42 1010.86 1011.31 1011.73 1012.35 1012.91 1013.64 1014.41 1014.89 1015.33 1015.77 1016.32 1016.99 1017.49 1017.82 1018.09 1018.28 1018.44 1018.47 1018.46 1018.39 1018.39 1018.38 1018.55 1018.74 1018.80 1018.91
1006.95 1006.73 1006.80 1006.83 1006.91 1006.69 1006.42 1006.08 1006.25 1006.37 1007.02 1007.39 1007.62 1008.34 1009.02 1009.53 1009.96 1010.24 1010.54 1010.87 1011.33 1011.74 1012.35 1013.24 1013.88 1014.34 1014.84 1015.33 1015.77 1016.17 1016.66 1016.97 1017.29 1017.61 1018.07 1018.22 1018.35 1018.31 1018.33 1018.16 1018.04 1017.98 1018.20 1018.23
1006.88 1006.50 1006.44 1006.42 1006.27 1006.19 1006.03 1006.28 1006.44 1006.58 1006.74 1007.20 1008.01 1007.74 1008.47 1008.81 1009.10 1009.36 1009.59 1010.09 1010.66 1011.27 1011.99 1012.61 1013.27 1013.85 1014.13 1014.62 1015.20 1015.49 1015.80 1016.35 1016.89 1017.48 1017.74 1017.86 1017.72 1017.78 1017.69 1017.76 1017.77 1017.82 1017.78 1017.56
1006.08 1005.92 1005.88 1005.70 1005.50 1005.94 1006.20 1006.52 1006.84 1007.00 1007.11 1007.47 1008.09 1008.08 1007.83 1008.54 1008.24 1008.13 1008.57 1009.17 1009.86 1010.57 1011.17 1011.76 1012.34 1012.91 1013.56 1014.05 1014.19 1014.72 1015.54 1016.12 1016.65 1017.05 1017.39 1017.55 1017.57 1017.44 1017.52 1017.57 1017.57 1017.43 1017.36 1017.58
1005.82 1005.76 1005.45 1005.05 1005.64 1006.00 1006.47 1006.67 1007.11 1007.48 1007.46 1007.65 1008.28 1008.31 1007.52 1007.63 1007.07 1007.15 1007.91 1008.50 1009.14 1009.91 1010.58 1011.16 1011.88 1012.47 1012.88 1013.49 1014.01 1014.55 1015.23 1015.67 1016.26 1016.70 1016.97 1017.04 1016.93 1016.88 1017.04 1017.09 1017.09 1017.00 1016.86 1016.65
1005.48 1005.21 1005.10 1005.06 1005.49 1006.35 1006.43 1006.52 1006.86 1007.28 1007.56 1007.81 1008.88 1008.78 1007.29 1007.63 1007.45 1007.40 1007.32 1007.89 1008.56 1009.32 1010.05 1010.73 1011.44 1011.94 1012.29 1012.90 1013.64 1014.20 1014.73 1015.18 1015.72 1016.13 1016.27 1016.45 1016.63 1016.79 1016.76 1016.63 1016.36 1016.21 1015.94 1015.86
1004.96 1005.03 1004.88 1004.88 1005.01 1005.43 1006.45 1006.42 1006.73 1007.21 1007.86 1008.35 1009.25 1008.22 1007.48 1007.86 1007.70 1007.60 1007.51 1007.95 1008.64 1009.08 1009.63 1010.28 1010.81 1011.26 1011.72 1012.39 1013.09 1013.66 1014.19 1014.73 1015.14 1015.45 1015.78 1016.07 1016.21 1016.20 1016.11 1015.94 1015.87 1015.67 1015.46 1015.26
1004.92 1004.86 1004.92 1005.11 1005.25 1005.77 1006.86 1007.04 1007.76 1007.91 1009.15 1008.63 1008.54 1008.19 1007.61 1007.76 1007.67 1007.74 1007.77 1008.22 1008.59 1008.99 1009.43 1009.98 1010.52 1010.97 1011.49 1012.00 1012.66 1013.33 1013.83 1014.27 1014.58 1014.87 1015.14 1015.34 1015.56 1015.56 1015.43 1015.51 1015.59 1015.35 1015.26 1015.01
1004.89 1005.05 1005.19 1005.73 1005.62 1006.33 1006.18 1007.28 1007.75 1007.92 1008.19 1008.22 1008.29 1008.13 1007.54 1007.75 1007.79 1007.92 1007.96 1008.06 1008.56 1009.10 1009.51 1009.91 1010.37 1010.90 1011.49 1012.14 1012.80 1013.23 1013.50 1013.79 1014.08 1014.37 1014.59 1014.72 1014.91 1015.15 1015.28 1015.37 1015.30 1015.17 1014.89 1014.76
1005.09 1005.33 1005.66 1005.77 1005.84 1005.92 1006.97 1007.12 1007.95 1008.24 1008.55 1008.15 1008.08 1007.59 1007.64 1007.67 1007.84 1007.85 1007.99 1008.22 1008.56 1008.98 1009.43 1009.90 1010.36 1011.21 1011.92 1012.35 1012.73 1013.06 1013.40 1013.73 1013.86 1014.07 1014.45 1014.66 1014.86 1015.07 1015.19 1015.18 1014.95 1014.73 1014.60 1014.43
1005.04 1005.23 1005.24 1006.03 1006.45 1006.66 1006.52 1006.78 1007.13 1007.40 1008.73 1008.80 1008.43 1007.49 1007.49 1007.84 1007.99 1008.18 1008.28 1008.63 1008.91 1009.26 1009.76 1010.28 1010.96 1011.66 1012.08 1012.35 1012.77 1013.00 1013.35 1013.63 1013.95 1014.41 1014.47 1014.48 1014.70 1014.86 1014.81 1014.67 1014.52 1014.43 1014.23 1013.92
1004.84 1005.25 1005.59 1006.19 1006.60 1006.65 1006.55 1007.21 1007.57 1007.82 1008.17 1008.28 1007.92 1007.21 1007.70 1007.96 1008.04 1008.17 1008.35 1008.74 1009.36 1009.84 1010.23 1010.78 1011.52 1012.01 1012.27 1012.57 1012.88 1013.15 1013.62 1013.88 1014.03 1014.08 1014.17 1014.36 1014.67 1014.64 1014.42 1014.31 1014.16 1013.91 1013.66 1013.34
1004.29 1005.20 1004.98 1005.05 1005.10 1005.86 1006.53 1006.95 1007.44 1007.27 1007.65 1007.86 1007.62 1007.31 1007.60 1007.99 1008.16 1008.43 1008.87 1009.27 1009.55 1009.88 1010.56 1011.30 1011.98 1012.47 1012.65 1012.78 1013.00 1013.37 1013.71 1013.72 1013.72 1013.98 1014.29 1014.43 1014.45 1014.33 1014.16 1014.04 1013.78 1013.49 1013.19 1012.75
1004.85 1005.31 1005.88 1005.90 1005.73 1005.78 1006.17 1006.68 1007.12 1007.29 1007.57 1007.53 1007.68 1007.97 1007.98 1008.40 1008.79 1008.88 1009.02 1009.57 1010.03 1010.54 1011.04 1011.63 1012.15 1012.61 1012.78 1012.98 1013.21 1013.40 1013.49 1013.65 1013.90 1014.09 1014.27 1014.16 1014.02 1013.88 1013.83 1013.70 1013.46 1013.13 1012.72 1012.23
1005.61 1006.07 1006.31 1006.57 1006.46 1006.16 1006.36 1006.75 1007.04 1007.45 1007.90 1008.01 1008.12 1008.22 1008.51 1008.91 1009.14 1009.40 1009.66 1010.05 1010.42 1010.93 1011.45 1012.06 1012.67 1013.16 1013.36 1013.27 1013.39 1013.60 1013.72 1013.92 1014.10 1014.06 1013.94 1013.64 1013.60 1013.66 1013.59 1013.34 1013.02 1012.58 1012.13 1011.72
1005.52 1006.11 1006.54 1007.00 1007.13 1006.78 1007.15 1006.73 1006.95 1007.42 1007.72 1007.65 1007.93 1008.39 1009.03 1009.18 1009.55 1009.82 1010.12 1010.43 1010.74 1011.18 1011.83 1012.41 1012.70 1012.87 1012.90 1013.02 1013.27 1013.60 1013.87 1013.93 1013.96 1013.91 1013.55 1013.38 1013.35 1013.21 1012.90 1012.62 1012.32 1011.81 1011.34 1011.13
1005.58 1006.22 1006.78 1007.35 1007.60 1007.28 1006.94 1007.32 1007.15 1007.20 1007.68 1008.03 1008.50 1008.97 1009.59 1010.01 1010.31 1010.38 1010.52 1010.56 1011.01 1011.55 1012.01 1012.36 1012.62 1012.88 1013.09 1013.37 1013.68 1013.95 1013.94 1013.89 1013.73 1013.42 1013.09 1012.95 1012.76 1012.66 1012.47 1012.28 1011.93 1011.51 1010.96 1010.60
1005.30 1005.72 1006.99 1007.24 1007.12 1007.43 1007.22 1007.38 1007.30 1007.11 1007.75 1008.11 1008.72 1009.50 1010.15 1010.65 1010.64 1010.90 1011.13 1011.27 1011.51 1011.91 1012.34 1012.85 1013.14 1013.41 1013.69 1013.85 1014.00 1013.97 1013.68 1013.41 1013.13 1012.76 1012.67 1012.58 1012.51 1012.28 1012.01 1011.69 1011.23 1010.85 1010.62 1010.13
1005.75 1005.55 1005.75 1007.44 1006.92 1006.71 1006.74 1007.32 1007.46 1007.59 1007.76 1008.13 1008.99 1009.67 1010.19 1010.69 1010.48 1010.95 1011.53 1011.81 1012.21 1012.79 1013.22 1013.48 1013.72 1013.88 1013.93 1014.04 1014.09 1013.92 1013.53 1013.26 1012.80 1012.48 1012.25 1012.13 1011.96 1011.73 1011.47 1011.21 1010.83 1010.42 1010.12 1009.63
1006.27 1006.47 1006.57 1007.18 1007.18 1007.39 1007.69 1007.86 1007.83 1008.36 1008.49 1008.45 1009.08 1009.68 1010.32 1010.68 1011.20 1011.61 1012.01 1012.51 1012.92 1013.25 1013.56 1013.86 1014.02 1014.14 1014.29 1014.24 1014.20 1013.98 1013.62 1013.08 1012.69 1012.32 1012.11 1011.76 1011.39 1011.18 1011.04 1010.77 1010.38 1009.81 1009.42 1009.01
1006.41 1006.86 1007.51 1008.17 1008.02 1008.34 1008.53 1008.67 1008.64 1008.63 1008.97 1009.11 1009.68 1010.33 1010.83 1011.21 1011.72 1012.10 1012.60 1013.06 1013.44 1013.73 1013.97 1014.21 1014.27 1014.43 1014.56 1014.54 1014.43 1013.99 1013.40 1013.01 1012.65 1012.25 1011.79 1011.36 1011.02 1010.77 1010.43 1010.27 1009.78 1009.33 1008.94 1008.52
1007.56 1007.50 1007.61 1008.55 1008.67 1009.11 1009.34 1009.37 1009.33 1009.36 1009.23 1009.62 1009.96 1010.62 1011.05 1011.60 1012.10 1012.67 1013.23 1013.69 1014.08 1014.37 1014.61 1014.84 1014.93 1014.79 1014.61 1014.57 1014.40 1013.90 1013.41 1013.06 1012.51 1012.02 1011.40 1010.91 1010.61 1010.30 1010.00 1009.72 1009.28 1008.81 1008.24 1007.80
1008.01 1008.25 1008.24 1008.95 1009.48 1009.64 1009.90 1010.00 1009.93 1009.87 1009.90 1010.35 1010.70 1011.25 1011.70 1012.14 1012.77 1013.28 1013.79 1014.26 1014.65 1014.99 1015.15 1015.21 1015.10 1014.89 1014.74 1014.62 1014.37 1014.14 1013.75 1013.19 1012.62 1011.89 1011.23 1010.70 1010.22 1009.79 1009.47 1009.14 1008.77 1008.44 1007.94 1007.46
1007.76 1008.34 1008.68 1009.45 1009.90 1010.19 1010.44 1010.61 1010.63 1010.74 1010.91 1011.18 1011.64 1012.07 1012.57 1012.98 1013.54 1013.98 1014.49 1014.92 1015.28 1015.45 1015.45 1015.44 1015.42 1015.27 1015.03 1014.88 1014.48 1014.00 1013.78 1013.27 1012.54 1011.99 1011.48 1010.87 1010.18 1009.62 1009.12 1008.67 1008.51 1008.35 1007.64 1007.54
1007.76 1008.01 1008.00 1008.15 1008.87 1009.45 1010.20 1010.93 1011.16 1011.20 1011.64 1012.02 1012.36 1013.00 1013.59 1013.95 1014.41 1014.79 1015.15 1015.71 1015.95 1016.03 1016.09 1016.04 1016.00 1015.79 1015.53 1015.14 1014.65 1014.27 1014.10 1013.70 1012.92 1012.05 1011.39 1010.74 1010.28 1009.57 1009.15 1008.62 1007.89 1007.28 1007.25 1006.82
Thickness
5819 5810 5804 5816 5816 5816 5811 5808 5808 5818 5826 5827 5822 5810 5814 5817 5818 5814 5810 5805 5803 5802 5804 5799 5794 5790 5786 5783 5778 5773 5768 5766 5764 5761 5759 5759 5760 5760 5760 5758 5756 5755 5753 5752
5809 5804 5821 5819 5815 5811 5808 5808 5810 5815 5821 5824 5812 5807 5812 5816 5818 5819 5815 5811 5809 5806 5803 5800 5794 5792 5790 5787 5783 5778 5773 5771 5770 5769 5767 5765 5764 5764 5763 5761 5760 5758 5758 5756
5807 5818 5823 5816 5810 5810 5812 5813 5810 5813 5815 5817 5814 5804 5805 5815 5819 5820 5820 5819 5815 5810 5806 5800 5796 5794 5793 5788 5785 5783 5780 5778 5776 5773 5767 5764 5762 5761 5759 5761 5761 5760 5758 5757
5811 5824 5817 5813 5812 5819 5807 5819 5816 5811 5809 5793 5804 5786 5800 5811 5814 5819 5823 5820 5817 5814 5810 5806 5800 5795 5795 5793 5791 5789 5787 5781 5777 5773 5768 5764 5763 5758 5761 5763 5761 5759 5759 5760
5814 5816 5814 5813 5821 5822 5812 5818 5810 5806 5800 5797 5790 5788 5810 5803 5809 5821 5827 5825 5823 5820 5815 5811 5808 5804 5801 5797 5796 5794 5788 5782 5777 5774 5769 5765 5761 5763 5762 5761 5758 5757 5758 5756
5816 5828 5826 5829 5823 5821 5815 5810 5801 5797 5797 5776 5779 5783 5797 5803 5819 5830 5830 5827 5826 5822 5818 5815 5813 5808 5805 5802 5796 5791 5785 5782 5778 5774 5769 5766 5764 5764 5761 5759 5757 5758 5760 5760
5808 5815 5827 5832 5815 5814 5810 5803 5775 5770 5771 5769 5772 5770 5802 5810 5821 5826 5830 5829 5828 5826 5820 5814 5808 5806 5806 5802 5797 5794 5788 5782 5779 5773 5770 5768 5765 5762 5759 5759 5760 5759 5761 5760
5792 5785 5816 5829 5823 5812 5801 5805 5780 5749 5758 5767 5764 5771 5800 5811 5820 5827 5832 5831 5827 5824 5822 5815 5813 5811 5807 5802 5796 5792 5787 5780 5778 5775 5771 5768 5764 5761 5760 5759 5759 5759 5759 5759
5786 5791 5819 5820 5823 5819 5791 5791 5793 5769 5748 5761 5769 5785 5807 5809 5811 5817 5821 5820 5819 5820 5819 5814 5813 5811 5807 5801 5796 5790 5784 5779 5776 5773 5770 5767 5765 5763 5761 5758 5755 5755 5754 5754
5799 5784 5806 5805 5818 5809 5810 5798 5778 5775 5747 5744 5761 5762 5781 5794 5798 5807 5810 5814 5815 5815 5813 5812 5810 5806 5801 5796 5790 5787 5784 5778 5774 5770 5768 5765 5761 5757 5754 5751 5748 5747 5748 5745
5801 5790 5789 5801 5796 5797 5789 5787 5773 5777 5764 5756 5747 5767 5798 5797 5802 5802 5807 5811 5811 5809 5808 5807 5805 5798 5790 5787 5783 5779 5775 5770 5766 5764 5759 5755 5751 5748 5744 5741 5741 5740 5740 5738
5803 5793 5781 5784 5792 5795 5797 5791 5793 5776 5748 5750 5756 5771 5803 5799 5800 5801 5803 5804 5806 5805 5802 5799 5792 5785 5780 5778 5774 5771 5767 5762 5757 5752 5749 5747 5743 5738 5737 5735 5734 5731 5729 5729
5795 5782 5764 5766 5781 5791 5788 5780 5776 5772 5768 5749 5755 5772 5796 5797 5795 5798 5800 5798 5793 5792 5791 5786 5779 5774 5772 5768 5765 5762 5755 5752 5747 5744 5741 5736 5730 5728 5727 5726 5724 5723 5720 5720
5803 5776 5784 5773 5789 5789 5773 5776 5775 5782 5764 5758 5765 5775 5785 5787 5789 5792 5788 5788 5788 5785 5780 5774 5767 5763 5762 5760 5756 5750 5745 5744 5739 5733 5727 5721 5718 5717 5715 5713 5712 5711 5709 5708
5794 5772 5770 5771 5782 5785 5780 5775 5770 5769 5767 5764 5765 5759 5773 5778 5776 5783 5785 5779 5775 5771 5768 5763 5759 5754 5753 5748 5744 5740 5737 5732 5725 5719 5713 5710 5709 5706 5703 5699 5696 5695 5694 5694
5777 5756 5766 5759 5769 5778 5769 5771 5771 5766 5755 5755 5756 5758 5774 5771 5771 5768 5768 5766 5762 5759 5757 5752 5747 5741 5737 5736 5732 5729 5722 5715 5711 5706 5702 5700 5696 5691 5688 5684 5681 5681 5681 5680
5773 5760 5759 5745 5753 5760 5743 5764 5766 5760 5761 5764 5750 5761 5761 5763 5760 5758 5755 5754 5751 5749 5744 5738 5736 5735 5733 5730 5725 5716 5710 5706 5699 5694 5692 5688 5682 5678 5675 5672 5668 5666 5667 5666
5758 5752 5750 5737 5739 5720 5755 5761 5768 5764 5759 5759 5755 5754 5751 5748 5748 5750 5751 5750 5744 5740 5735 5732 5729 5725 5722 5719 5712 5705 5700 5694 5689 5686 5681 5675 5671 5663 5658 5653 5650 5647 5649 5649
5765 5758 5729 5731 5736 5734 5743 5750 5753 5751 5744 5756 5747 5742 5739 5737 5741 5736 5739 5740 5736 5732 5727 5721 5716 5711 5706 5701 5696 5691 5689 5684 5679 5674 5666 5660 5653 5648 5644 5640 5638 5635 5632 5632
5751 5756 5758 5719 5726 5723 5750 5750 5756 5754 5728 5751 5741 5733 5730 5729 5724 5725 5727 5726 5722 5716 5710 5705 5701 5698 5693 5688 5683 5679 5676 5671 5665 5660 5656 5648 5642 5637 5633 5629 5627 5625 5622 5624
5732 5730 5732 5721 5723 5728 5737 5739 5748 5711 5728 5741 5736 5730 5724 5719 5718 5716 5715 5708 5705 5700 5696 5693 5689 5683 5679 5676 5670 5665 5661 5657 5654 5649 5644 5638 5634 5628 5623 5619 5619 5618 5618 5618
5728 5722 5715 5705 5707 5702 5726 5725 5718 5730 5724 5727 5723 5717 5712 5712 5707 5704 5699 5694 5691 5686 5683 5679 5674 5669 5664 5659 5654 5652 5648 5646 5642 5639 5634 5628 5625 5621 5617 5613 5614 5613 5613 5614
5707 5714 5716 5713 5713 5707 5711 5713 5718 5718 5718 5716 5716 5711 5709 5702 5697 5692 5685 5680 5676 5673 5668 5664 5657 5653 5650 5645 5641 5638 5636 5634 5633 5629 5627 5625 5620 5616 5612 5608 5608 5610 5613 5612
5693 5695 5701 5697 5695 5698 5700 5704 5707 5709 5708 5705 5704 5699 5696 5689 5683 5676 5671 5665 5660 5656 5651 5647 5643 5640 5635 5632 5628 5625 5624 5624 5622 5622 5620 5619 5616 5612 5608 5605 5605 5605 5606 5607
5695 5692 5687 5680 5684 5688 5690 5691 5693 5692 5693 5690 5687 5683 5677 5673 5666 5662 5656 5651 5645 5640 5636 5632 5629 5625 5622 5618 5617 5617 5616 5615 5615 5613 5610 5609 5610 5607 5604 5602 5597 5595 5599 5598
5689 5686 5691 5689 5693 5691 5685 5681 5683 5682 5678 5677 5673 5665 5661 5657 5651 5646 5641 5635 5630 5625 5620 5617 5613 5611 5608 5607 5607 5607 5604 5603 5603 5605 5605 5604 5602 5602 5598 5594 5595 5596 5591 5593